Time,TemperatureF,DewpointF,PressureIn,WindDirection,WindDirectionDegrees,WindSpeedMPH,WindSpeedGustMPH,Humidity,HourlyPrecipIn,Conditions,Clouds,dailyrainin,SoftwareType,DateUTC
2013-01-07 00:00:00,34.4,29.5,30.33,NNW,338,0.0,1.0,82,0.00,,---,0.00,VWS V14.01,2013-01-07 06:00:00,
2013-01-07 00:30:00,34.7,29.8,30.33,NNW,338,0.0,2.0,82,0.00,,---,0.00,VWS V14.01,2013-01-07 06:30:00,
2013-01-07 01:00:00,34.5,27.7,30.33,NNW,338,0.0,0.0,76,0.00,,---,0.00,VWS V14.01,2013-01-07 07:00:00,
2013-01-07 01:30:00,33.3,29.0,30.32,NNW,338,0.0,1.0,84,0.00,,---,0.00,VWS V14.01,2013-01-07 07:30:00,
2013-01-07 02:00:00,34.1,28.3,30.33,NNE,22,0.0,2.0,79,0.00,,---,0.00,VWS V14.01,2013-01-07 08:00:00,
2013-01-07 02:30:00,33.5,28.3,30.32,NNE,22,0.0,3.0,81,0.00,,---,0.00,VWS V14.01,2013-01-07 08:30:00,
2013-01-07 03:00:00,34.7,29.2,30.31,NNE,22,1.0,4.0,80,0.00,,---,0.00,VWS V14.01,2013-01-07 09:00:00,
2013-01-07 03:30:00,34.4,28.9,30.30,NNE,22,1.0,3.0,80,0.00,,---,0.00,VWS V14.01,2013-01-07 09:30:00,
2013-01-07 04:00:00,34.3,28.8,30.30,North,0,1.0,4.0,80,0.00,,---,0.00,VWS V14.01,2013-01-07 10:00:00,
2013-01-07 04:30:00,32.0,27.7,30.30,North,0,0.0,2.0,84,0.00,,---,0.00,VWS V14.01,2013-01-07 10:30:00,
2013-01-07 05:00:00,30.9,28.0,30.31,NW,315,0.0,1.0,89,0.00,,---,0.00,VWS V14.01,2013-01-07 11:00:00,
2013-01-07 05:30:00,31.6,28.2,30.30,NW,315,0.0,1.0,87,0.00,,---,0.00,VWS V14.01,2013-01-07 11:30:00,
2013-01-07 06:00:00,31.4,28.3,30.31,North,0,0.0,1.0,88,0.00,,---,0.00,VWS V14.01,2013-01-07 12:00:00,
2013-01-07 06:30:00,32.3,29.1,30.33,North,0,0.0,1.0,88,0.00,,---,0.00,VWS V14.01,2013-01-07 12:30:00,
2013-01-07 07:00:00,33.1,28.8,30.33,East,90,0.0,2.0,84,0.00,,---,0.00,VWS V14.01,2013-01-07 13:00:00,
2013-01-07 07:30:00,34.1,28.3,30.33,ENE,68,1.0,4.0,79,0.00,,---,0.00,VWS V14.01,2013-01-07 13:30:00,
2013-01-07 08:00:00,35.4,29.2,30.34,NE,45,0.0,3.0,78,0.00,,---,0.00,VWS V14.01,2013-01-07 14:00:00,
2013-01-07 08:30:00,38.9,33.3,30.35,East,90,1.0,6.0,80,0.00,,---,0.00,VWS V14.01,2013-01-07 14:30:00,
2013-01-07 09:00:00,40.4,34.4,30.35,ENE,68,2.0,7.0,79,0.00,,---,0.00,VWS V14.01,2013-01-07 15:00:00,
2013-01-07 09:30:00,41.3,35.3,30.35,East,90,4.0,9.0,79,0.00,,---,0.00,VWS V14.01,2013-01-07 15:30:00,
2013-01-07 10:00:00,43.6,36.2,30.35,East,90,5.0,12.0,75,0.00,,---,0.00,VWS V14.01,2013-01-07 16:00:00,
2013-01-07 10:30:00,45.3,36.5,30.34,East,90,5.0,13.0,71,0.00,,---,0.00,VWS V14.01,2013-01-07 16:30:00,
2013-01-07 11:00:00,46.7,35.6,30.35,East,90,6.0,14.0,65,0.00,,---,0.00,VWS V14.01,2013-01-07 17:00:00,
2013-01-07 11:30:00,49.9,37.0,30.31,East,90,3.0,8.0,61,0.00,,---,0.00,VWS V14.01,2013-01-07 17:30:00,
2013-01-07 12:00:00,51.5,36.3,30.29,East,90,3.0,10.0,56,0.00,,---,0.00,VWS V14.01,2013-01-07 18:00:00,
2013-01-07 12:30:00,53.4,35.2,30.27,East,90,3.0,9.0,50,0.00,,---,0.00,VWS V14.01,2013-01-07 18:30:00,
2013-01-07 13:00:00,54.5,35.8,30.25,East,90,1.0,5.0,49,0.00,,---,0.00,VWS V14.01,2013-01-07 19:00:00,
2013-01-07 13:30:00,55.6,34.6,30.23,ESE,112,1.0,2.0,45,0.00,,---,0.00,VWS V14.01,2013-01-07 19:30:00,
2013-01-07 14:00:00,55.8,34.2,30.22,SE,135,1.0,5.0,44,0.00,,---,0.00,VWS V14.01,2013-01-07 20:00:00,
2013-01-07 14:30:00,56.3,35.2,30.20,SE,135,1.0,3.0,45,0.00,,---,0.00,VWS V14.01,2013-01-07 20:30:00,
2013-01-07 15:00:00,55.3,35.4,30.19,East,90,2.0,6.0,47,0.00,,---,0.00,VWS V14.01,2013-01-07 21:00:00,
2013-01-07 15:30:00,54.7,35.9,30.18,East,90,2.0,6.0,49,0.00,,---,0.00,VWS V14.01,2013-01-07 21:30:00,
2013-01-07 16:00:00,53.5,37.3,30.17,East,90,3.0,6.0,54,0.00,,---,0.00,VWS V14.01,2013-01-07 22:00:00,
2013-01-07 16:30:00,53.0,36.3,30.16,ENE,68,3.0,7.0,53,0.00,,---,0.00,VWS V14.01,2013-01-07 22:30:00,
2013-01-07 17:00:00,52.1,34.5,30.17,East,90,3.0,7.0,51,0.00,,---,0.00,VWS V14.01,2013-01-07 23:00:00,
2013-01-07 17:30:00,51.0,36.3,30.17,East,90,2.0,4.0,57,0.00,,---,0.00,VWS V14.01,2013-01-07 23:30:00,
2013-01-07 18:00:00,50.0,33.6,30.16,East,90,1.0,3.0,53,0.00,,---,0.00,VWS V14.01,2013-01-08 00:00:00,
2013-01-07 18:30:00,49.1,35.0,30.17,East,90,1.0,2.0,58,0.00,,---,0.00,VWS V14.01,2013-01-08 00:30:00,
2013-01-07 19:00:00,48.1,36.1,30.16,East,90,1.0,3.0,63,0.00,,---,0.00,VWS V14.01,2013-01-08 01:00:00,
2013-01-07 19:30:00,47.3,35.4,30.16,East,90,1.0,3.0,63,0.00,,---,0.00,VWS V14.01,2013-01-08 01:30:00,
2013-01-07 20:00:00,46.2,35.1,30.17,East,90,1.0,3.0,65,0.00,,---,0.00,VWS V14.01,2013-01-08 02:00:00,
2013-01-07 20:30:00,44.8,34.9,30.16,ENE,68,0.0,1.0,68,0.00,,---,0.00,VWS V14.01,2013-01-08 02:30:00,
2013-01-07 21:00:00,45.5,34.8,30.16,ENE,68,1.0,3.0,66,0.00,,---,0.00,VWS V14.01,2013-01-08 03:00:00,
2013-01-07 21:30:00,45.5,34.4,30.15,NE,45,1.0,4.0,65,0.00,,---,0.00,VWS V14.01,2013-01-08 03:30:00,
2013-01-07 22:00:00,45.7,35.0,30.14,ENE,68,3.0,7.0,66,0.00,,---,0.00,VWS V14.01,2013-01-08 04:00:00,
2013-01-07 22:30:00,45.9,34.4,30.13,ENE,68,3.0,7.0,64,0.00,,---,0.00,VWS V14.01,2013-01-08 04:30:00,
2013-01-07 23:00:00,46.0,35.3,30.14,East,90,4.0,9.0,66,0.00,,---,0.00,VWS V14.01,2013-01-08 05:00:00,
2013-01-07 23:30:00,46.1,35.4,30.13,East,90,3.0,6.0,66,0.00,,---,0.00,VWS V14.01,2013-01-08 05:30:00,